FW9036 Weather Reports


time (UTC)temp
F
wind
direction
speed
knots
gust
knots
rain 1hr
in
rain 24hr
in
rain mn
in
humidity
%
barometer
mb
20260906075810 80 271 0.0 1.7 0.00 0.00 0.00 89 1009.5
20260906075310 79 36 0.0 1.7 0.00 0.00 0.00 89 1009.6
20260906074806 79 274 0.0 1.7 0.00 0.00 0.00 89 1009.6
20260906074305 79 70 0.0 0.9 0.00 0.00 0.00 89 1009.7
20260906073804 80 227 0.0 0.0 0.00 0.00 0.00 89 1009.5
20260906073259 80 31 0.0 0.9 0.00 0.00 0.00 89 1009.6
20260906072755 80 250 0.0 0.9 0.00 0.00 0.00 89 1009.6
20260906072250 80 144 0.0 0.9 0.00 0.00 0.00 88 1009.6
20260906071747 80 86 0.0 0.9 0.00 0.00 0.00 88 1009.5
20260906071246 80 49 0.0 2.6 0.00 0.00 0.00 88 1009.7
20260906070743 80 70 0.0 1.7 0.00 0.00 0.00 88 1009.7
20260906070238 80 9 0.9 1.7 0.00 0.00 0.00 88 1009.5
20260906065738 80 324 0.9 1.7 0.00 0.00 0.00 88 1009.7
20260906065233 80 198 0.0 0.9 0.00 0.00 0.00 88 1009.7
20260906064729 80 281 2.6 2.6 0.00 0.00 0.00 88 1009.7
20260906064224 80 85 0.0 0.9 0.00 0.00 0.00 89 1009.5
20260906063719 80 125 0.9 0.9 0.00 0.00 0.00 89 1009.7
20260906063215 80 275 0.0 1.7 0.00 0.00 0.00 88 1009.9
20260906062710 80 123 0.0 2.6 0.00 0.00 0.00 88 1009.6
20260906062209 80 211 0.0 1.7 0.00 0.00 0.00 88 1009.8
20260906061705 80 198 0.0 1.7 0.00 0.00 0.00 88 1010.1
20260906061201 81 164 0.9 1.7 0.00 0.00 0.00 88 1009.9
20260906060657 81 262 1.7 1.7 0.00 0.00 0.00 87 1010.2
20260906060154 81 2 0.0 0.9 0.00 0.00 0.00 87 1009.9
20260906055649 81 162 0.9 1.7 0.00 0.00 0.00 87 1009.9
20260906055144 81 223 0.0 2.6 0.00 0.00 0.00 87 1010.3
20260906054640 81 138 1.7 1.7 0.00 0.00 0.00 86 1010.1
20260906054135 81 315 0.0 1.7 0.00 0.00 0.00 86 1010.4
20260906053631 82 89 0.0 0.9 0.00 0.00 0.00 86 1010.2
20260906053126 82 335 0.0 1.7 0.00 0.00 0.00 86 1010.3
20260906052621 82 39 0.9 1.7 0.00 0.00 0.00 86 1010.1
20260906052118 82 202 0.9 1.7 0.00 0.00 0.00 86 1010.1
20260906051614 82 321 1.7 1.7 0.00 0.00 0.00 86 1010.1
20260906051109 82 306 1.7 2.6 0.00 0.00 0.00 86 1010.1
20260906050604 82 135 0.9 2.6 0.00 0.00 0.00 86 1010.2
20260906050059 82 315 0.0 0.9 0.00 0.00 0.00 86 1010.1
20260906045557 82 153 1.7 1.7 0.00 0.00 0.00 86 1010.2
20260906045053 82 131 0.0 1.7 0.00 0.00 0.00 86 1010.6
20260906044549 82 80 0.9 3.5 0.00 0.00 0.00 86 1010.2
20260906044044 82 254 0.9 1.7 0.00 0.00 0.00 87 1010.4
20260906043539 82 153 0.0 2.6 0.00 0.00 0.00 87 1010.4
20260906043036 82 140 0.9 1.7 0.00 0.00 0.00 88 1010.4
20260906042534 82 167 0.0 2.6 0.00 0.00 0.00 88 1010.7
20260906042029 82 177 0.9 1.7 0.00 0.00 0.00 89 1010.5
20260906041525 82 23 0.0 0.9 0.00 0.00 0.00 89 1010.5
20260906041025 82 51 0.0 1.7 0.00 0.00 0.00 90 1010.5
20260906040520 82 175 0.0 1.7 0.00 0.00 0.00 90 1010.4
20260906040016 82 255 0.9 0.9 0.00 0.02 0.02 91 1010.7
20260906035511 82 178 0.9 1.7 0.00 0.02 0.02 91 1010.7
20260906035007 82 20 0.9 0.9 0.00 0.02 0.02 91 1010.6
20260906034506 82 288 0.0 0.9 0.00 0.02 0.02 92 1010.9
20260906034001 82 115 0.0 0.0 0.00 0.02 0.02 92 1010.9
20260906033456 81 158 1.7 1.7 0.00 0.02 0.02 92 1010.8
20260906032952 81 25 0.0 1.7 0.00 0.02 0.02 91 1010.8
20260906032448 81 161 0.0 0.9 0.00 0.02 0.02 91 1010.8
20260906031943 81 174 0.0 0.9 0.00 0.02 0.02 91 1010.8
20260906031438 81 289 3.5 3.5 0.00 0.02 0.02 91 1011.0
20260906030933 81 177 0.0 2.6 0.00 0.02 0.02 90 1010.9
20260906030428 81 241 0.0 2.6 0.00 0.02 0.02 90 1011.1
20260906025922 81 283 1.7 1.7 0.00 0.02 0.02 90 1011.0
20260906025417 81 193 1.7 2.6 0.00 0.02 0.02 90 1011.2
20260906024916 81 278 0.0 1.7 0.00 0.02 0.02 89 1011.1
20260906024415 81 292 0.0 0.9 0.00 0.02 0.02 89 1011.3
20260906023910 81 60 0.9 0.9 0.00 0.02 0.02 89 1011.2
20260906023407 82 70 0.0 1.7 0.00 0.02 0.02 88 1011.0
20260906022906 82 56 0.0 1.7 0.00 0.02 0.02 88 1011.0
20260906022401 82 294 0.0 1.7 0.00 0.02 0.02 88 1010.9
20260906021857 82 70 0.0 1.7 0.00 0.02 0.02 88 1010.9
20260906021356 82 308 1.7 1.7 0.00 0.02 0.02 88 1010.8
20260906020851 82 62 1.7 1.7 0.00 0.02 0.02 87 1010.9
20260906020351 82 210 0.0 3.5 0.00 0.02 0.02 87 1010.9
20260906015846 82 311 0.0 1.7 0.00 0.02 0.02 86 1011.2
20260906015345 82 229 0.0 3.5 0.00 0.02 0.02 86 1010.7
20260906014844 82 246 1.7 1.7 0.00 0.02 0.02 85 1010.5
20260906014339 82 10 0.0 2.6 0.00 0.02 0.02 85 1010.7
20260906013836 82 262 0.9 1.7 0.00 0.02 0.02 84 1010.5
20260906013331 82 70 0.0 4.3 0.00 0.02 0.02 84 1010.4
20260906012826 82 274 0.0 0.9 0.00 0.02 0.02 83 1010.3
20260906012321 82 248 0.0 2.6 0.00 0.02 0.02 83 1010.1
20260906011815 82 259 0.9 0.9 0.00 0.02 0.02 82 1010.1
20260906011315 82 314 0.9 1.7 0.00 0.02 0.02 82 1010.1
20260906010812 82 250 0.0 1.7 0.00 0.02 0.02 81 1010.0
20260906010308 82 31 0.0 1.7 0.00 0.02 0.02 81 1010.0
20260906005802 82 100 0.9 2.6 0.00 0.02 0.02 81 1010.0
20260906005301 82 98 0.0 0.9 0.00 0.02 0.02 80 1010.1
20260906004800 83 110 0.0 1.7 0.00 0.02 0.02 80 1010.0
20260906004255 83 36 0.0 0.9 0.00 0.02 0.02 79 1010.0
20260906003750 83 30 0.0 0.9 0.00 0.02 0.02 79 1009.8
20260906003246 83 26 0.0 0.9 0.00 0.02 0.02 79 1009.7
20260906002741 83 295 0.0 1.7 0.00 0.02 0.02 79 1009.5
20260906002240 83 303 0.0 0.9 0.00 0.02 0.02 79 1009.8
20260906001736 83 73 0.0 1.7 0.00 0.02 0.02 78 1009.4
20260906001231 84 47 0.0 0.0 0.00 0.02 0.02 78 1009.5
20260906000727 84 84 0.0 0.9 0.00 0.02 0.02 78 1009.3
20260906000226 84 56 0.0 0.9 0.00 0.02 0.02 78 1009.4
20260905235721 84 219 1.7 1.7 0.00 0.02 0.02 78 1009.4
20260905235216 84 144 0.0 0.0 0.00 0.02 0.02 77 1009.5
20260905234711 84 70 0.0 0.0 0.00 0.02 0.02 77 1009.3
20260905234207 85 311 0.0 0.9 0.00 0.02 0.02 76 1009.3
20260905233702 85 70 0.0 0.0 0.00 0.02 0.02 75 1009.4
20260905233201 85 218 0.0 1.7 0.00 0.02 0.02 75 1009.5
20260905232656 85 93 0.0 1.7 0.00 0.02 0.02 76 1009.5
20260905232152 86 47 0.0 0.9 0.00 0.02 0.02 75 1009.4
20260905231647 86 36 0.0 1.7 0.00 0.02 0.02 73 1009.5
20260905231143 87 34 0.0 0.9 0.00 0.02 0.02 72 1009.6
20260905230639 87 67 2.6 3.5 0.00 0.02 0.02 71 1009.4
20260905230136 87 114 2.6 2.6 0.00 0.02 0.02 72 1009.7
20260905225631 87 268 1.7 2.6 0.00 0.02 0.02 72 1009.5
20260905225126 87 121 1.7 3.5 0.00 0.02 0.02 73 1009.7
20260905224625 86 46 0.9 2.6 0.00 0.02 0.02 73 1009.7
20260905224125 87 176 0.0 2.6 0.00 0.02 0.02 72 1009.8
20260905223622 87 298 0.0 3.5 0.00 0.02 0.02 72 1010.0
20260905223118 87 271 0.0 3.5 0.00 0.02 0.02 71 1009.9
20260905222619 88 206 0.0 1.7 0.00 0.02 0.02 72 1009.9
20260905222114 88 228 0.0 0.9 0.00 0.02 0.02 72 1010.0
20260905221610 87 48 0.0 1.7 0.00 0.02 0.02 71 1009.8
20260905221106 88 83 1.7 2.6 0.00 0.02 0.02 72 1010.1
20260905220601 87 127 0.0 0.9 0.00 0.02 0.02 72 1010.0
20260905220057 87 51 0.0 2.6 0.00 0.02 0.02 70 1010.1
20260905215556 88 70 0.0 4.3 0.00 0.02 0.02 70 1010.0
20260905215052 89 96 1.7 1.7 0.00 0.02 0.02 70 1009.9
20260905214548 88 286 0.0 2.6 0.00 0.02 0.02 70 1010.0
20260905214043 87 142 0.9 1.7 0.00 0.02 0.02 72 1009.9
20260905213538 87 171 0.0 1.7 0.00 0.02 0.02 73 1010.0
20260905213034 87 170 1.7 1.7 0.00 0.02 0.02 73 1010.1
20260905212528 87 201 0.0 2.6 0.00 0.02 0.02 72 1010.2
20260905212028 87 214 0.9 0.9 0.00 0.02 0.02 73 1010.1
20260905211523 87 58 0.9 1.7 0.00 0.02 0.02 72 1010.0
20260905211019 87 256 1.7 2.6 0.00 0.02 0.02 72 1010.2
20260905210515 87 78 2.6 2.6 0.00 0.02 0.02 71 1010.2
20260905210014 87 308 0.9 2.6 0.00 0.02 0.02 72 1010.2
20260905205509 87 88 0.9 3.5 0.00 0.02 0.02 72 1010.4
20260905205008 87 47 0.9 1.7 0.00 0.02 0.02 72 1010.1
20260905204503 87 85 1.7 3.5 0.00 0.02 0.02 72 1010.2
20260905204003 87 63 1.7 2.6 0.00 0.02 0.02 72 1010.4
20260905203458 87 50 2.6 2.6 0.00 0.02 0.02 72 1010.1
20260905202953 87 146 0.9 2.6 0.00 0.02 0.02 72 1010.0
20260905202448 87 215 0.9 2.6 0.00 0.02 0.02 72 1010.0
20260905201944 87 102 1.7 2.6 0.00 0.02 0.02 71 1010.0
20260905201439 88 197 0.0 2.6 0.00 0.02 0.02 70 1010.4
20260905200933 88 188 0.0 1.7 0.00 0.02 0.02 68 1010.1
20260905200429 89 72 0.9 4.3 0.00 0.02 0.02 67 1010.1
20260905195927 90 120 1.7 2.6 0.00 0.02 0.02 65 1010.4
20260905195422 91 92 0.0 1.7 0.00 0.02 0.02 64 1010.1
20260905194918 91 152 0.9 3.5 0.00 0.02 0.02 63 1010.4
20260905194417 91 350 1.7 2.6 0.00 0.02 0.02 63 1010.4
20260905193917 92 306 6.1 6.1 0.00 0.02 0.02 60 1010.2
20260905193412 92 280 0.9 3.5 0.00 0.02 0.02 62 1010.3
20260905192907 91 25 1.7 4.3 0.00 0.02 0.02 63 1010.2
20260905192403 91 148 0.9 2.6 0.00 0.02 0.02 64 1010.2
20260905191857 91 358 2.6 6.1 0.00 0.02 0.02 64 1010.5
20260905191356 92 350 2.6 5.2 0.00 0.02 0.02 63 1010.8
20260905190855 92 3 1.7 2.6 0.00 0.02 0.02 64 1011.0
20260905190348 91 0 4.3 5.2 0.00 0.02 0.02 65 1010.9
20260905185848 91 351 2.6 3.5 0.00 0.02 0.02 65 1010.7
20260905185343 90 339 0.9 3.5 0.00 0.02 0.02 67 1010.8
20260905184842 90 323 3.5 4.3 0.00 0.02 0.02 66 1010.8
20260905184341 90 336 2.6 5.2 0.00 0.02 0.02 65 1010.8
20260905183840 91 321 1.7 4.3 0.00 0.02 0.02 63 1010.9
20260905183335 90 298 3.5 5.2 0.00 0.02 0.02 65 1011.0
20260905182830 90 296 2.6 5.2 0.00 0.02 0.02 66 1011.0
20260905182329 91 303 4.3 4.3 0.00 0.02 0.02 64 1011.0
20260905181825 90 30 0.9 4.3 0.00 0.02 0.02 69 1011.0
20260905181324 89 297 2.6 3.5 0.00 0.02 0.02 70 1011.1
20260905180823 88 312 1.7 4.3 0.00 0.02 0.02 72 1011.3
20260905180319 88 351 3.5 3.5 0.00 0.02 0.02 73 1011.5
20260905175814 87 79 0.0 1.7 0.00 0.02 0.02 75 1011.6
20260905175308 86 303 0.9 1.7 0.00 0.02 0.02 79 1011.5
20260905174803 85 201 0.0 1.7 0.00 0.02 0.02 77 1011.5
20260905174300 84 324 1.7 1.7 0.00 0.02 0.02 81 1011.5
20260905173755 85 124 1.7 2.6 0.02 0.02 0.02 75 1011.7
20260905173251 86 106 2.6 3.5 0.00 0.02 0.02 73 1011.5
20260905172750 86 292 4.3 5.2 0.00 0.02 0.02 74 1011.7
20260905172249 88 320 2.6 6.1 0.00 0.02 0.02 71 1012.0
20260905171745 90 36 1.7 6.1 0.00 0.02 0.02 68 1012.0
20260905171242 90 354 1.7 4.3 0.00 0.02 0.02 68 1011.9
20260905170738 89 15 2.6 2.6 0.00 0.02 0.02 70 1011.9
20260905170233 88 341 2.6 4.3 0.05 0.02 0.02 75 1012.1
20260905165732 88 33 2.6 3.5 0.05 0.02 0.02 75 1012.1
20260905165228 90 11 2.6 5.2 0.00 0.01 0.01 69 1012.2
20260905164728 91 331 2.6 4.3 0.00 0.01 0.01 64 1012.4
20260905164223 90 308 4.3 4.3 0.00 0.01 0.01 65 1012.4
20260905163719 90 358 0.9 5.2 0.00 0.01 0.01 64 1012.5
20260905163215 89 48 1.7 2.6 0.00 0.01 0.01 67 1012.5
20260905162711 89 210 0.0 4.3 0.00 0.01 0.01 70 1012.6
20260905162210 89 335 1.7 4.3 0.00 0.01 0.01 68 1012.7
20260905161705 89 299 2.6 5.2 0.00 0.01 0.01 70 1012.8
20260905161203 88 354 2.6 3.5 0.00 0.01 0.01 70 1012.8
20260905160656 88 4 2.6 4.3 0.00 0.01 0.01 73 1012.7
20260905160155 87 297 4.3 6.1 0.00 0.01 0.01 74 1013.2
20260905155650 87 322 0.9 5.2 0.00 0.01 0.01 75 1012.8
20260905155149 87 288 1.7 6.1 0.00 0.01 0.01 75 1013.2
20260905154644 87 328 3.5 3.5 0.00 0.01 0.01 76 1012.9
20260905154139 86 62 0.0 2.6 0.00 0.01 0.01 80 1013.2
20260905153635 86 329 1.7 3.5 0.00 0.01 0.01 82 1013.2
20260905153130 85 14 1.7 3.5 0.00 0.01 0.01 83 1013.3
20260905152625 84 33 0.9 0.9 0.02 0.01 0.01 86 1013.4
20260905152120 84 35 1.7 1.7 0.05 0.01 0.01 85 1013.3
20260905151615 84 15 1.7 3.5 0.00 0.00 0.00 84 1013.3
20260905151111 84 42 1.7 3.5 0.00 0.00 0.00 82 1013.5
20260905150606 84 289 1.7 4.3 0.00 0.00 0.00 81 1013.3
20260905150104 85 338 0.9 2.6 0.00 0.00 0.00 81 1013.4
20260905145603 84 126 0.0 2.6 0.00 0.00 0.00 83 1013.5
20260905145102 84 138 2.6 3.5 0.00 0.00 0.00 81 1013.3
20260905144557 84 73 0.0 2.6 0.00 0.00 0.00 81 1013.3
20260905144056 84 344 1.7 2.6 0.00 0.00 0.00 82 1013.3
20260905143555 84 348 2.6 2.6 0.00 0.00 0.00 83 1013.1
20260905143051 84 36 0.0 3.5 0.00 0.00 0.00 84 1013.4
20260905142549 84 270 1.7 3.5 0.00 0.00 0.00 84 1013.3
20260905142044 84 134 1.7 1.7 0.00 0.00 0.00 84 1013.5
20260905141539 84 330 3.5 3.5 0.00 0.00 0.00 82 1013.3
20260905141035 84 24 2.6 2.6 0.00 0.00 0.00 84 1013.3
20260905140530 83 47 0.0 1.7 0.00 0.00 0.00 84 1013.4
20260905140029 83 357 2.6 4.3 0.00 0.00 0.00 84 1013.5
20260905135525 83 278 0.0 1.7 0.00 0.00 0.00 85 1013.5
20260905135019 83 135 1.7 1.7 0.00 0.00 0.00 86 1013.2
20260905134514 83 306 1.7 3.5 0.00 0.00 0.00 86 1013.1
20260905134013 82 345 2.6 3.5 0.00 0.00 0.00 87 1013.0
20260905133509 82 295 1.7 3.5 0.00 0.00 0.00 88 1012.9
20260905133008 82 284 2.6 2.6 0.00 0.00 0.00 88 1013.3
20260905132503 81 312 1.7 1.7 0.00 0.00 0.00 88 1013.1
20260905132003 81 159 1.7 2.6 0.00 0.00 0.00 89 1013.0
20260905131458 81 333 1.7 2.6 0.00 0.00 0.00 89 1013.3
20260905130954 81 306 1.7 2.6 0.00 0.00 0.00 89 1013.2
20260905130453 81 343 2.6 2.6 0.00 0.00 0.00 90 1013.4
20260905125952 80 320 2.6 2.6 0.00 0.00 0.00 90 1013.2
20260905125447 80 292 0.9 2.6 0.00 0.00 0.00 90 1013.2
20260905124943 80 132 1.7 3.5 0.00 0.00 0.00 89 1013.4
20260905124439 80 242 0.0 2.6 0.00 0.00 0.00 90 1013.0
20260905123934 80 193 0.0 3.5 0.00 0.00 0.00 91 1013.3
20260905123431 80 161 0.9 1.7 0.00 0.00 0.00 91 1013.1
20260905122926 79 47 0.0 0.9 0.00 0.00 0.00 92 1013.0
20260905122425 79 136 1.7 3.5 0.00 0.00 0.00 92 1013.0
20260905121921 79 223 0.0 0.9 0.00 0.00 0.00 93 1013.1
20260905121417 79 239 1.7 1.7 0.00 0.00 0.00 93 1013.3
20260905120915 79 10 1.7 1.7 0.00 0.00 0.00 94 1012.8
20260905120416 78 31 0.9 1.7 0.00 0.00 0.00 94 1012.8
20260905115911 78 98 0.9 0.9 0.00 0.00 0.00 95 1012.7
20260905115410 78 270 0.0 0.0 0.00 0.00 0.00 95 1012.6
20260905114905 78 216 0.0 0.0 0.00 0.00 0.00 95 1012.6
20260905114404 78 170 0.0 0.0 0.00 0.00 0.00 95 1012.4
20260905113904 78 31 0.0 0.9 0.00 0.00 0.00 95 1012.6
20260905113359 78 51 1.7 1.7 0.00 0.00 0.00 95 1012.2
20260905112854 78 38 0.0 1.7 0.00 0.00 0.00 95 1012.1
20260905112349 78 137 0.0 1.7 0.00 0.00 0.00 95 1012.2
20260905111844 78 297 0.0 0.0 0.00 0.00 0.00 95 1012.1
20260905111339 78 158 0.0 0.9 0.00 0.00 0.00 95 1012.3
20260905110838 78 40 0.9 1.7 0.00 0.00 0.00 95 1012.1
20260905110332 78 358 1.7 1.7 0.00 0.00 0.00 95 1012.2
20260905105828 78 238 0.0 0.9 0.00 0.00 0.00 95 1012.2
20260905105327 78 137 0.0 1.7 0.00 0.00 0.00 95 1011.9
20260905104821 78 85 0.0 0.9 0.00 0.00 0.00 95 1012.1
20260905104318 78 230 0.0 1.7 0.00 0.00 0.00 95 1011.8
20260905103817 77 205 0.0 2.6 0.00 0.00 0.00 95 1011.7
20260905103313 77 36 0.0 0.9 0.00 0.00 0.00 96 1011.7
20260905102809 77 138 0.0 0.9 0.00 0.00 0.00 96 1011.6
20260905102306 77 7 0.0 1.7 0.00 0.00 0.00 96 1011.7
20260905101804 77 25 0.0 0.9 0.00 0.00 0.00 96 1011.6
20260905101303 77 147 0.9 0.9 0.00 0.00 0.00 96 1011.5
20260905100757 77 6 0.0 0.9 0.00 0.00 0.00 96 1011.7
20260905100254 77 170 0.0 0.9 0.00 0.00 0.00 96 1011.8
20260905095753 77 13 0.0 0.0 0.00 0.00 0.00 96 1011.7
20260905095247 77 130 0.0 0.9 0.00 0.00 0.00 95 1011.7
20260905094742 77 110 0.0 1.7 0.00 0.00 0.00 95 1011.8
20260905094238 77 122 0.0 0.0 0.00 0.00 0.00 95 1012.0
20260905093736 77 150 0.0 1.7 0.00 0.00 0.00 95 1012.0
20260905093233 77 141 0.0 0.9 0.00 0.00 0.00 95 1012.0
20260905092728 77 88 0.0 0.9 0.00 0.00 0.00 95 1011.9
20260905092223 77 140 1.7 2.6 0.00 0.00 0.00 95 1011.7
20260905091722 77 111 0.0 1.7 0.00 0.00 0.00 95 1012.2
20260905091218 77 81 0.0 1.7 0.00 0.00 0.00 95 1012.0
20260905090716 77 111 0.0 1.7 0.00 0.00 0.00 95 1011.9
20260905090213 77 98 0.0 0.9 0.00 0.00 0.00 95 1012.0
20260905085712 77 78 0.0 1.7 0.00 0.00 0.00 95 1011.6
20260905085207 77 6 0.0 0.9 0.00 0.00 0.00 95 1011.8
20260905084707 77 333 0.0 0.9 0.00 0.00 0.00 95 1011.5
20260905084207 77 195 0.0 0.9 0.00 0.00 0.00 95 1011.6
20260905083701 77 155 1.7 1.7 0.00 0.00 0.00 95 1011.5
20260905083158 77 96 0.0 0.9 0.00 0.00 0.00 95 1011.5
20260905082654 77 13 0.0 1.7 0.00 0.00 0.00 94 1011.5
20260905082149 78 6 0.9 1.7 0.00 0.00 0.00 94 1011.3
20260905081649 77 193 0.9 1.7 0.00 0.00 0.00 95 1011.4
20260905081144 78 237 0.0 0.9 0.00 0.00 0.00 95 1011.4
20260905080644 78 176 0.0 0.9 0.00 0.00 0.00 95 1011.6
20260905080143 78 11 0.9 1.7 0.00 0.00 0.00 95 1011.4